Location: ????????
(55.0097°N, 38.5678°E)
Time: 23:47:18
(UTC+00:00)

NOSS 3-1 (C) - Pass Details

Date: 24 December 2025
Orbit: 618 x 1583 km, 63.4° (Epoch: 10 January)

Event Time Altitude Azimuth Distance (km) Brightness Sun altitude
Rises 14:22:03 0° 189° (S) 2,957 6.6 -10.5°
Reaches altitude 10° 14:24:24 10° 178° (S) 2,117 5.6 -10.8°
Maximum altitude 14:28:30 29° 118° (ESE) 1,348 4.0 -11.3°
Enters shadow 14:31:59 16° 68° (ENE) 2,064 4.5 -11.8°
